Theta_e
315 314 314 315 315 316 316 316 317 316 315 313 312 312 311 311 312 317 319 321 322 321 323 325 328 328 333 338 345 347 350 352 350 353 355 355 356 354 352 357 354 352 355 356 356
315 314 314 314 315 315 316 316 316 315 315 313 313 312 312 312 319 318 318 317 318 321 325 327 332 330 335 341 347 350 349 348 346 348 350 355 355 355 356 356 357 356 356 357 356
314 314 314 314 315 315 315 316 316 315 316 314 313 312 312 312 322 318 318 317 316 320 323 325 328 332 337 341 345 349 349 347 346 346 347 351 355 354 355 358 356 358 360 359 357
314 313 313 313 314 314 315 315 315 315 315 315 313 312 312 322 319 320 321 322 318 320 323 326 331 335 337 338 342 345 342 344 345 345 346 351 350 353 354 357 354 355 357 358 358
315 314 313 313 313 313 314 315 314 315 315 315 313 312 319 320 318 320 328 323 322 321 324 328 332 334 336 335 337 341 341 339 341 340 342 343 349 354 357 355 354 356 357 358 358
314 314 313 312 312 313 313 314 314 314 315 315 313 313 320 318 316 320 323 329 328 324 326 329 332 331 334 335 338 337 338 339 340 343 343 346 352 352 356 356 357 358 359 357 357
314 313 313 312 312 312 312 313 314 314 315 314 313 320 320 318 318 321 320 326 327 327 329 330 329 331 333 336 334 336 340 340 341 343 345 349 355 361 357 359 360 360 359 358 357
313 312 312 312 311 311 311 312 313 315 315 313 313 323 319 315 316 318 321 324 326 326 327 329 329 332 333 334 337 339 341 342 340 345 345 347 364 359 357 359 361 359 359 357 357
313 312 312 312 311 310 311 313 314 315 313 313 321 320 318 315 317 319 322 326 327 328 329 328 331 333 334 338 338 339 340 339 339 346 346 347 363 358 356 358 359 353 353 356 359
313 312 312 311 310 311 313 315 314 316 317 321 322 324 320 319 319 321 322 325 328 330 332 333 333 336 337 338 340 340 337 337 339 344 349 353 361 358 357 357 358 356 352 353 353
312 312 311 311 311 313 314 317 323 324 321 322 319 319 321 321 320 322 324 325 327 330 336 334 336 338 336 333 334 334 334 336 340 343 346 348 351 351 355 355 356 352 355 354 350
312 311 311 310 310 313 315 322 322 322 327 323 319 318 319 319 324 325 325 327 328 332 336 335 337 336 333 332 332 334 335 337 341 343 346 351 355 355 354 353 351 352 353 353 347
311 311 310 309 311 313 318 321 321 321 329 328 325 321 319 319 325 326 327 327 328 332 334 337 334 332 334 333 333 335 336 336 337 345 346 351 354 357 354 353 350 352 351 350 350
311 310 310 310 313 317 319 320 320 321 331 329 329 325 323 322 323 326 326 326 327 331 333 336 334 332 332 333 333 336 333 334 335 342 345 343 354 353 352 353 353 350 351 352 352
310 310 309 308 316 318 319 319 320 322 333 328 328 323 324 321 324 324 326 325 326 331 332 333 333 333 333 333 332 334 334 336 337 341 342 345 347 355 351 353 352 351 349 349 347
310 309 309 312 313 318 318 320 320 331 332 329 326 326 323 322 322 325 325 326 326 329 330 332 330 330 331 330 331 331 333 340 340 340 342 346 344 352 347 353 351 349 348 346 345
310 309 308 314 321 318 320 323 330 332 332 330 325 325 323 323 322 325 326 327 326 328 331 330 331 329 329 331 331 331 336 341 341 340 344 347 348 352 349 352 350 347 347 345 346
310 312 313 315 316 318 322 328 332 327 333 328 324 324 324 324 323 323 325 326 325 325 327 329 331 330 330 331 334 333 336 340 342 341 345 348 346 352 348 350 350 347 345 346 347
315 315 315 317 316 319 326 331 330 335 336 331 324 324 324 324 324 323 323 325 325 326 327 328 331 330 331 332 332 334 335 335 336 338 340 344 348 349 348 349 351 349 345 346 346
321 323 322 317 318 322 328 327 331 330 331 330 329 326 327 324 324 324 324 323 323 325 327 328 331 332 331 330 331 333 335 336 336 341 344 345 345 347 353 350 353 350 347 346 347
323 327 319 318 320 328 329 329 329 329 330 332 331 328 328 326 324 325 326 325 323 324 327 329 332 333 331 333 334 333 333 334 337 338 342 341 345 343 351 350 355 353 349 350 352
328 326 319 319 331 330 329 328 323 328 328 329 332 332 325 325 325 326 326 326 325 325 328 329 331 335 333 332 332 334 334 334 338 341 339 341 346 349 347 350 354 355 356 356 357
327 326 322 322 332 331 330 329 328 328 329 332 334 333 329 328 329 328 328 327 325 325 328 329 330 334 334 333 336 336 335 334 336 336 341 341 345 349 348 355 355 359 359 359 357
333 329 328 329 329 330 330 330 330 331 332 332 335 336 335 337 337 338 333 331 326 326 337 331 330 331 334 337 339 339 337 335 335 337 337 340 344 352 353 358 361 360 359 357 353
333 334 330 331 331 331 332 335 335 336 335 335 338 337 337 341 342 341 337 336 327 333 327 328 330 331 332 333 334 335 337 337 337 337 340 338 339 344 351 352 358 359 357 354 348
333 335 330 333 332 335 332 338 337 337 338 338 338 338 337 340 342 342 337 337 336 332 330 328 332 332 333 332 334 339 338 337 337 338 340 339 340 346 349 350 357 358 356 350 344
321 323 328 328 335 338 338 337 337 336 337 337 337 339 340 341 338 338 337 336 336 334 332 331 333 337 336 335 335 340 339 339 339 339 340 341 346 349 350 352 355 357 353 346 341
Wind_Speed
13 13 11 10 9 9 8 8 8 8 8 8 7 7 8 10 11 8 12 5 3 7 3 4 4 4 5 2 2 2 2 5 8 4 5 5 9 4 3 6 3 4 5 13 23
14 14 12 10 9 8 8 7 8 8 8 7 6 6 7 9 9 16 13 12 8 3 7 5 4 5 2 1 2 3 2 6 5 4 6 8 8 8 6 7 6 8 10 22 24
15 14 13 10 10 9 8 8 8 7 7 6 5 4 4 6 8 6 10 16 16 8 6 7 7 6 3 1 1 0 4 4 2 3 3 3 9 7 9 5 5 9 15 19 23
15 15 14 13 11 10 9 8 8 7 7 5 4 3 3 3 5 3 5 9 17 13 9 6 5 4 1 1 1 3 3 4 4 2 2 4 2 4 7 5 7 6 16 19 18
16 15 15 15 12 10 9 8 7 7 5 5 4 2 1 7 7 3 4 8 12 15 13 7 5 3 2 3 2 4 4 5 5 8 7 4 2 3 6 8 4 10 15 17 17
16 16 15 15 13 10 8 8 7 6 4 4 4 2 6 10 3 2 4 9 10 16 11 8 2 6 5 2 4 6 8 7 3 5 1 3 5 2 9 3 7 11 14 14 18
16 16 16 15 14 11 8 7 6 4 4 5 5 1 8 7 2 5 1 5 11 11 8 6 3 7 6 3 4 5 6 2 4 6 3 8 6 7 5 5 10 12 10 10 11
16 16 15 15 14 10 7 6 3 4 5 6 5 3 6 4 7 9 5 8 8 7 5 4 4 7 5 4 4 5 4 5 7 10 3 7 7 5 3 7 9 10 9 10 12
16 16 16 17 15 10 5 4 4 6 8 7 2 6 3 2 9 11 9 10 12 8 5 3 6 4 6 7 6 4 2 3 5 9 1 6 8 4 3 6 8 7 7 10 11
17 17 17 17 17 5 5 9 9 8 4 3 5 5 6 7 9 10 11 8 12 10 8 8 5 8 7 9 3 3 3 3 6 5 5 9 8 4 4 4 5 6 6 5 5
17 16 17 16 15 6 10 6 5 5 9 5 2 3 4 3 6 12 14 13 11 12 12 9 11 13 5 4 5 7 7 6 5 2 2 6 7 4 5 4 4 1 2 9 9
18 16 16 15 9 11 5 5 4 5 5 15 8 7 6 3 11 14 15 14 13 15 15 8 15 7 2 4 6 8 8 4 5 1 2 4 7 6 5 2 1 7 10 14 12
18 17 17 14 5 8 9 7 3 6 6 7 7 7 5 8 14 17 17 15 16 20 16 16 6 1 6 7 8 10 8 7 6 5 4 5 8 7 7 5 4 6 10 12 14
20 17 16 8 1 6 7 6 6 5 5 11 9 7 7 6 9 14 20 13 10 19 16 16 11 6 7 11 9 11 5 6 5 8 2 6 2 5 6 5 6 9 11 11 11
20 18 13 4 2 5 3 4 5 4 6 10 7 6 9 13 15 14 15 11 15 15 11 14 11 13 12 13 5 3 4 6 5 6 6 8 8 9 5 7 9 10 12 13 13
21 17 8 4 7 7 3 3 5 6 4 7 8 13 15 13 9 18 15 12 6 16 13 17 5 5 8 7 8 7 8 4 6 6 10 7 7 9 7 7 10 12 12 12 13
24 14 10 7 2 5 4 6 6 7 5 9 11 17 18 14 12 16 20 19 12 15 14 16 13 12 7 10 10 9 11 8 9 6 1 5 5 9 10 8 9 13 14 15 14
17 0 9 9 4 5 9 7 8 2 6 6 10 17 16 17 12 15 20 18 19 15 12 13 15 21 12 16 10 14 15 7 5 3 1 5 3 8 10 10 8 9 16 16 16
8 6 6 4 9 5 8 10 1 3 2 8 12 16 15 16 6 12 16 20 18 16 11 14 12 15 10 12 12 9 11 9 6 6 7 5 4 7 8 9 10 14 17 17 15
3 7 6 5 8 8 8 6 1 1 1 6 10 15 16 17 13 13 15 16 19 20 15 8 13 12 11 9 8 11 4 9 10 5 7 5 3 4 16 15 14 15 17 16 15
4 3 4 7 5 6 8 3 2 1 2 3 6 10 11 17 15 16 14 7 20 22 17 8 9 11 8 12 16 9 10 10 8 7 3 4 7 5 17 18 18 15 14 15 14
5 2 5 6 6 6 8 5 2 4 3 5 4 6 10 15 15 12 10 13 21 21 23 17 10 9 17 8 4 9 14 16 11 12 7 8 3 3 13 17 17 16 13 11 11
0 5 5 4 6 8 5 8 5 9 7 2 5 6 5 10 10 13 10 6 11 20 21 17 10 10 11 11 9 11 16 17 18 10 6 9 5 8 12 15 16 17 15 14 14
3 5 5 5 4 7 4 8 8 4 9 7 6 4 6 6 8 5 9 5 12 19 12 14 15 13 13 5 4 14 17 20 18 11 12 10 3 12 16 16 15 15 16 17 15
1 2 3 8 8 6 4 2 5 4 5 6 6 9 8 5 7 9 9 6 10 9 11 17 18 14 17 3 5 10 13 19 20 18 10 3 7 8 16 17 17 16 16 16 16
4 3 2 0 3 6 5 4 5 3 5 7 8 6 7 7 4 4 8 6 8 11 14 18 9 13 14 9 9 9 10 14 17 9 9 13 10 7 10 15 18 19 18 17 16
5 1 4 4 5 5 2 2 1 3 5 4 6 7 6 5 6 9 5 5 6 10 12 13 8 7 12 8 8 9 11 12 11 10 9 11 6 4 10 16 19 19 18 18 17
Wind_Direction
354 348 338 324 314 304 298 293 291 280 271 264 268 281 287 299 297 277 249 235 179 237 282 288 248 278 267 247 302 309 205 95 88 88 100 168 191 187 201 147 170 100 68 123 155
356 351 342 332 321 309 298 292 288 283 270 260 264 280 295 319 297 261 243 238 260 255 227 276 313 308 255 231 183 287 348 48 356 351 80 168 209 177 190 188 161 125 103 134 152
354 350 345 334 324 313 300 295 285 279 266 252 256 275 304 329 271 230 216 240 230 208 262 286 296 288 287 252 92 264 16 342 324 328 300 179 206 208 227 201 207 188 158 149 158
349 349 344 337 324 312 301 293 284 278 257 241 239 258 298 266 207 120 288 220 214 207 240 263 267 263 277 24 48 273 61 286 340 15 276 232 299 212 239 67 349 167 168 159 169
345 344 345 341 331 316 300 290 281 273 248 228 218 227 269 219 252 357 358 184 185 196 223 234 270 318 348 1 288 273 344 301 297 306 276 276 29 69 35 337 259 135 157 163 174
345 342 343 341 334 322 301 286 276 260 224 210 194 184 245 237 135 135 78 142 177 190 202 220 332 339 282 315 275 330 308 308 352 31 79 166 71 227 26 12 135 154 152 167 177
343 340 338 341 334 323 301 281 268 232 194 177 170 216 247 239 184 213 6 170 178 194 191 205 286 271 334 224 324 293 281 198 42 348 70 142 88 48 47 103 130 130 152 164 184
342 340 339 338 333 321 299 272 224 174 162 158 164 236 259 210 230 245 205 174 173 191 227 171 243 278 260 306 224 275 236 203 68 359 87 224 87 71 87 126 130 128 139 172 199
341 339 339 337 330 322 293 147 152 144 139 142 209 243 230 198 217 206 192 184 172 172 186 205 259 292 221 239 206 233 91 12 125 33 152 229 107 102 135 144 144 156 168 187 183
340 338 338 335 330 308 138 127 119 100 131 201 252 236 227 171 162 176 189 188 180 165 174 217 230 239 218 238 209 64 344 350 11 53 74 82 90 118 141 192 196 219 272 184 145
339 339 338 333 333 143 120 131 188 177 213 242 146 303 131 163 179 186 172 180 191 193 196 205 231 220 108 9 346 319 304 317 79 91 70 69 92 117 147 193 214 158 75 141 113
338 336 336 334 330 171 169 240 9 349 224 221 242 263 248 265 172 171 179 189 196 198 203 183 226 213 127 299 293 292 288 289 124 121 239 129 104 114 131 112 144 128 115 142 163
336 333 335 330 317 180 215 233 171 351 250 162 202 232 203 208 192 174 193 207 201 206 194 222 183 36 238 260 268 261 284 304 297 136 117 173 142 141 121 145 137 141 143 151 165
333 328 328 336 140 179 224 224 222 312 249 151 190 184 181 216 204 173 203 190 205 211 206 226 168 231 240 245 262 262 1 286 250 232 212 226 79 152 143 137 181 161 164 160 172
328 324 314 220 319 208 104 197 229 233 230 137 148 130 155 193 140 188 186 201 211 205 191 208 215 232 240 242 221 336 336 291 241 237 226 170 261 117 164 157 155 175 167 164 161
323 317 294 241 219 218 190 183 197 226 216 152 142 175 172 194 196 148 181 223 243 215 207 240 177 229 243 215 225 303 268 207 197 227 236 107 273 150 150 126 139 155 156 160 160
326 301 225 188 131 162 182 183 209 249 136 159 173 171 186 177 170 178 187 195 190 196 201 217 210 215 222 237 220 239 228 223 218 204 168 102 252 69 126 141 141 154 154 160 159
319 257 203 187 206 177 189 206 237 79 183 136 165 177 191 174 173 194 192 200 212 215 208 209 208 220 210 230 235 211 234 241 270 214 158 147 252 116 129 140 157 172 160 164 172
119 123 134 206 191 194 212 216 175 144 79 164 165 177 198 185 191 184 204 209 197 213 230 195 225 180 208 217 234 181 235 288 280 209 267 110 139 157 155 154 168 178 165 169 172
150 163 96 145 168 203 224 262 142 18 304 212 184 193 188 192 201 198 185 206 199 205 225 199 205 192 175 209 209 274 214 214 234 239 259 141 221 104 178 176 172 173 174 168 162
233 179 57 156 171 208 216 190 239 177 315 249 211 190 217 186 205 197 181 170 200 192 211 216 239 158 182 203 213 191 222 238 284 275 301 251 112 125 183 177 170 175 167 160 158
282 146 135 165 210 202 225 228 23 259 229 267 264 268 213 180 200 200 212 227 187 193 200 217 211 217 204 130 315 291 245 216 229 197 247 305 54 115 176 174 172 167 170 153 142
94 115 184 252 213 198 192 248 257 278 266 244 231 246 177 175 207 218 220 186 188 199 194 203 231 205 221 196 201 227 219 248 240 262 206 269 122 145 158 167 175 163 157 151 142
258 144 153 216 289 281 212 232 244 212 261 276 283 250 194 227 220 210 208 164 203 194 193 188 231 229 223 196 338 203 217 213 238 225 237 209 171 168 169 168 165 168 161 153 151
293 65 12 184 202 217 244 290 241 226 206 229 244 241 217 244 195 211 201 154 187 168 199 216 233 218 248 260 284 278 214 204 223 242 254 242 247 159 181 180 173 165 161 156 155
333 318 194 198 174 223 153 195 256 207 242 201 241 305 235 253 317 189 182 196 172 183 197 210 234 227 235 245 261 255 231 210 228 245 265 284 284 59 164 171 178 172 166 165 161
10 288 284 139 186 227 135 349 309 310 205 279 305 271 226 68 64 65 90 124 134 175 195 202 211 213 225 211 235 241 217 215 219 238 251 253 31 96 158 178 185 175 174 167 165